Weather History for Gaithersburg, MD

Change the Weather History Date:

Saturday, March 1, 2014

  Actual Average (KCGS) Record (KCGS)
Temperature  
Mean Temperature 28 °F -  
Max Temperature 41 °F 50 °F 78 °F (1972)
Min Temperature 14 °F 29 °F 11 °F (1980)
Degree Days  
Heating Degree Days 38    
Moisture  
Dew Point 11 °F    
Average Humidity 50    
Maximum Humidity 79    
Minimum Humidity 33    
Precipitation  
Precipitation 0.00 in - - ()
Sea Level Pressure  
Sea Level Pressure 30.30 in    
Wind  
Wind Speed 3 mph (SE)    
Max Wind Speed 9 mph    
Max Gust Speed -    
Visibility 10 miles    
Events      
Averages and records for this station are not official NWS values.
T = Trace of Precipitation, MM = Missing Value Source: NWS Daily Summary

Daily Weather History Graph

Daily Weather History Graph

Search for Another Location

Airport:

Trip Planner

Search our weather history database for the weather conditions in past years. The results will help you decide how hot, cold, wet, or windy it might be!

Date:

Astronomy

Mar. 01, 2014 Rise Set
Actual Time 6:41 AM EST 6:01 PM EST
Civil Twilight 6:14 AM EST 6:28 PM EST
Nautical Twilight 5:43 AM EST 6:59 PM EST
Astronomical Twilight 5:12 AM EST 7:30 PM EST
Moon 6:34 AM EST (3/1) 6:45 PM EST (3/1)
Length of Visible Light 12h 13m
Length of Day
11h 19m
New Moon, 0% of the Moon is Illuminated
Mar 1
New Moon
Mar 8
First Quarter
Mar 16
Full
Mar 23
Last Quarter
Mar 30
New

Hourly Weather History & Observations

Time (EST) Temp. Windchill Dew Point Humidity Pressure Visibility Wind Dir Wind Speed Gust Speed Precip Events Conditions
12:15 AM 17.6 °F 12.3 °F -0.4 °F 45% 30.40 in 10.0 mi ESE 3.5 mph - N/A   Clear
12:35 AM 15.8 °F - -0.4 °F 49% 30.39 in 10.0 mi Calm Calm - N/A   Clear
12:55 AM 17.6 °F 12.3 °F -0.4 °F 45% 30.38 in 10.0 mi East 3.5 mph - N/A   Clear
1:15 AM 17.6 °F - -0.4 °F 45% 30.38 in 10.0 mi Calm Calm - N/A   Clear
1:35 AM 15.8 °F - 1.4 °F 53% 30.38 in 10.0 mi Calm Calm - N/A   Clear
1:55 AM 15.8 °F - 1.4 °F 53% 30.38 in 10.0 mi Calm Calm - N/A   Clear
2:15 AM 15.8 °F - 1.4 °F 53% 30.37 in 10.0 mi Calm Calm - N/A   Clear
2:35 AM 15.8 °F - 3.2 °F 58% 30.37 in 10.0 mi Calm Calm - N/A   Clear
2:55 AM 15.8 °F - 1.4 °F 53% 30.37 in 10.0 mi Calm Calm - N/A   Clear
3:15 AM 15.8 °F - 1.4 °F 53% 30.36 in 10.0 mi Calm Calm - N/A   Clear
3:35 AM 14.0 °F - 6.8 °F 73% 30.36 in 10.0 mi Calm Calm - N/A   Clear
3:55 AM 15.8 °F 10.2 °F 3.2 °F 58% 30.36 in 10.0 mi ESE 3.5 mph - N/A   Clear
4:15 AM 15.8 °F - 5.0 °F 62% 30.36 in 10.0 mi Calm Calm - N/A   Clear
4:55 AM 15.8 °F - 5.0 °F 62% 30.36 in 10.0 mi Calm Calm - N/A   Clear
5:15 AM 15.8 °F 8.6 °F 6.8 °F 68% 30.36 in 10.0 mi ESE 4.6 mph - N/A   Clear
5:35 AM 15.8 °F 10.2 °F 5.0 °F 62% 30.35 in 10.0 mi ESE 3.5 mph - N/A   Clear
5:55 AM 14.0 °F - 5.0 °F 67% 30.35 in 10.0 mi Calm Calm - N/A   Clear
6:15 AM 15.8 °F - 6.8 °F 68% 30.36 in 10.0 mi Calm Calm - N/A   Clear
6:35 AM 14.0 °F - 8.6 °F 79% 30.36 in 10.0 mi Calm Calm - N/A   Clear
6:55 AM 15.8 °F - 8.6 °F 73% 30.37 in 10.0 mi Calm Calm - N/A   Clear
7:15 AM 15.8 °F - 6.8 °F 68% 30.38 in 10.0 mi Calm Calm - N/A   Clear
7:35 AM 17.6 °F 12.3 °F 10.4 °F 73% 30.38 in 10.0 mi SE 3.5 mph - N/A   Clear
7:55 AM 19.4 °F 10.4 °F 8.6 °F 63% 30.38 in 10.0 mi SE 6.9 mph - N/A   Clear
8:15 AM 21.2 °F 13.6 °F 8.6 °F 58% 30.38 in 10.0 mi ESE 5.8 mph - N/A   Clear
8:35 AM 23.0 °F 15.8 °F 8.6 °F 54% 30.39 in 10.0 mi SE 5.8 mph - N/A   Clear
8:55 AM 24.8 °F 17.9 °F 10.4 °F 54% 30.38 in 10.0 mi SSE 5.8 mph - N/A   Clear
9:15 AM 26.6 °F 21.2 °F 12.2 °F 55% 30.38 in 10.0 mi SE 4.6 mph - N/A   Clear
9:35 AM 28.4 °F 21.2 °F 12.2 °F 51% 30.38 in 10.0 mi SSW 6.9 mph - N/A   Clear
9:55 AM 30.2 °F 23.4 °F 14.0 °F 51% 30.37 in 10.0 mi SSW 6.9 mph - N/A   Clear
10:15 AM 30.2 °F 22.6 °F 12.2 °F 47% 30.37 in 10.0 mi South 8.1 mph - N/A   Clear
10:35 AM 32.0 °F 26.4 °F 12.2 °F 44% 30.37 in 10.0 mi South 5.8 mph - N/A   Clear
10:55 AM 33.8 °F 28.6 °F 12.2 °F 41% 30.36 in 10.0 mi SW 5.8 mph - N/A   Clear
11:15 AM 33.8 °F 26.4 °F 12.2 °F 41% 30.35 in 10.0 mi SSW 9.2 mph - N/A   Clear
11:35 AM 35.6 °F 28.6 °F 12.2 °F 38% 30.34 in 10.0 mi South 9.2 mph - N/A   Partly Cloudy
11:55 AM 35.6 °F 29.2 °F 12.2 °F 38% 30.34 in 10.0 mi South 8.1 mph - N/A   Scattered Clouds
12:15 PM 37.4 °F 33.8 °F 12.2 °F 36% 30.32 in 10.0 mi SSW 4.6 mph - N/A   Mostly Cloudy
12:35 PM 37.4 °F 32.1 °F 12.2 °F 36% 30.30 in 10.0 mi SSE 6.9 mph - N/A   Scattered Clouds
12:55 PM 37.4 °F 32.8 °F 12.2 °F 36% 30.28 in 10.0 mi SSE 5.8 mph - N/A   Clear
1:15 PM 37.4 °F 32.1 °F 12.2 °F 36% 30.27 in 10.0 mi SE 6.9 mph - N/A   Partly Cloudy
1:35 PM 39.2 °F 35.0 °F 14.0 °F 36% 30.26 in 10.0 mi South 5.8 mph - N/A   Partly Cloudy
1:55 PM 39.2 °F 35.0 °F 12.2 °F 33% 30.25 in 10.0 mi South 5.8 mph - N/A   Partly Cloudy
2:15 PM 41.0 °F 37.1 °F 14.0 °F 33% 30.24 in 10.0 mi South 5.8 mph - N/A   Clear
2:35 PM 41.0 °F 37.1 °F 15.8 °F 36% 30.24 in 10.0 mi SE 5.8 mph - N/A   Partly Cloudy
2:55 PM 39.2 °F - 15.8 °F 39% 30.24 in 10.0 mi Calm Calm - N/A   Mostly Cloudy
3:15 PM 39.2 °F 34.2 °F 14.0 °F 36% 30.23 in 10.0 mi South 6.9 mph - N/A   Overcast
3:35 PM 39.2 °F 34.2 °F 14.0 °F 36% 30.22 in 10.0 mi ESE 6.9 mph - N/A   Overcast
3:55 PM 39.2 °F 37.0 °F 15.8 °F 39% 30.22 in 10.0 mi ESE 3.5 mph - N/A   Overcast
4:15 PM 39.2 °F 35.0 °F 14.0 °F 36% 30.22 in 10.0 mi SE 5.8 mph - N/A   Overcast
4:35 PM 39.2 °F 35.9 °F 14.0 °F 36% 30.22 in 10.0 mi SE 4.6 mph - N/A   Overcast
4:55 PM 39.2 °F 35.9 °F 14.0 °F 36% 30.22 in 10.0 mi SE 4.6 mph - N/A   Overcast
5:15 PM 39.2 °F 35.0 °F 15.8 °F 39% 30.21 in 10.0 mi SSE 5.8 mph - N/A   Overcast
5:35 PM 39.2 °F 35.0 °F 15.8 °F 39% 30.21 in 10.0 mi SE 5.8 mph - N/A   Overcast
5:55 PM 39.2 °F 35.0 °F 15.8 °F 39% 30.21 in 10.0 mi SE 5.8 mph - N/A   Overcast
6:15 PM 37.4 °F 34.9 °F 15.8 °F 41% 30.21 in 10.0 mi ESE 3.5 mph - N/A   Overcast
6:35 PM 37.4 °F - 14.0 °F 38% 30.22 in 10.0 mi Calm Calm - N/A   Scattered Clouds
6:55 PM 35.6 °F - 14.0 °F 41% 30.23 in 10.0 mi Calm Calm - N/A   Clear
7:15 PM 33.8 °F - 15.8 °F 48% 30.24 in 10.0 mi Calm Calm - N/A   Mostly Cloudy
7:35 PM 33.8 °F - 17.6 °F 52% 30.25 in 10.0 mi Calm Calm - N/A   Overcast
7:55 PM 35.6 °F 31.7 °F 17.6 °F 48% 30.25 in 10.0 mi ENE 4.6 mph - N/A   Overcast
8:15 PM 35.6 °F 31.7 °F 15.8 °F 44% 30.23 in 10.0 mi ESE 4.6 mph - N/A   Overcast
8:35 PM 35.6 °F 31.7 °F 15.8 °F 44% 30.22 in 10.0 mi ESE 4.6 mph - N/A   Overcast
8:55 PM 33.8 °F 28.6 °F 17.6 °F 52% 30.21 in 10.0 mi ESE 5.8 mph - N/A   Mostly Cloudy
9:15 PM 33.8 °F 27.7 °F 17.6 °F 52% 30.20 in 10.0 mi ESE 6.9 mph - N/A   Overcast
9:35 PM 33.8 °F 27.0 °F 17.6 °F 52% 30.20 in 10.0 mi ESE 8.1 mph - N/A   Overcast
9:55 PM 33.8 °F 29.6 °F 17.6 °F 52% 30.20 in 10.0 mi SE 4.6 mph - N/A   Overcast
10:15 PM 33.8 °F - 17.6 °F 52% 30.21 in 10.0 mi Calm Calm - N/A   Overcast
10:35 PM 32.0 °F - 17.6 °F 55% 30.21 in 10.0 mi Calm Calm - N/A   Overcast
10:55 PM 30.2 °F - 17.6 °F 60% 30.21 in 10.0 mi Calm Calm - N/A   Overcast
11:15 PM 30.2 °F - 17.6 °F 60% 30.20 in 10.0 mi Calm Calm - N/A   Overcast
11:35 PM 30.2 °F - 19.4 °F 64% 30.20 in 10.0 mi Calm Calm - N/A   Overcast
11:55 PM 32.0 °F - 17.6 °F 55% 30.19 in 10.0 mi Calm Calm - N/A   Overcast